Location: ??????????
(42.1626°N, 44.1160°E)
Time: 14:13:48
(UTC+00:00)

Cosmos 1777 Rocket - Pass Details

Date: 03 March 2021
Orbit: 759 x 775 km, 74.0° (Epoch: 20 April)

Event Time Altitude Azimuth Distance (km) Brightness Sun altitude
Rises 16:49:26 0° 342° (NNW) 3,244 7.6 -21.7°
Reaches altitude 10° 16:51:51 10° 345° (NNW) 2,312 6.8 -22.2°
Maximum altitude 16:57:05 69° 69° (ENE) 820 3.9 -23.1°
Enters shadow 16:57:47 60° 115° (ESE) 870 3.9 -23.2°
